Temp
74 73 73 72 72 72 72 72 71 71 71 72 71 71 71 71 71 71 70 71 70 70 71 71 71 72 72 72 71 71 71 71 71 70 69 69 69 70 70 70 71 69 67 66 63 63 64 66 64 62 60 61 64 66 67 68 67 66 65 64 63 61 60 58 56 54 53 52 51
74 73 73 72 71 72 72 71 71 71 71 72 72 71 71 71 71 71 71 71 71 71 71 71 72 72 72 72 71 71 71 71 70 69 69 69 70 70 71 71 71 70 68 65 63 62 63 65 64 62 59 58 61 63 66 67 66 64 62 61 59 57 56 53 52 52 51 50 49
74 74 73 73 73 72 72 71 71 71 72 72 72 72 72 72 71 71 71 71 72 72 72 72 72 72 72 72 71 71 71 71 70 69 69 69 70 70 70 71 70 69 67 66 65 64 65 66 64 62 59 57 59 61 62 64 63 61 58 57 56 54 53 51 51 50 50 49 48
74 74 73 73 73 72 72 72 72 72 72 72 72 72 72 72 72 71 71 72 72 72 72 72 73 72 72 71 71 71 71 71 70 70 69 69 70 70 69 68 67 67 67 66 66 67 67 66 64 61 59 58 58 58 59 59 59 57 55 54 53 52 51 50 50 49 48 47 47
74 74 73 73 73 73 73 73 73 73 72 72 72 72 72 72 72 72 72 71 71 72 72 73 73 73 72 72 71 71 70 70 69 69 69 69 69 69 68 66 66 65 65 66 66 67 66 65 62 60 58 58 57 56 56 57 56 55 54 53 52 51 51 50 49 48 47 46 46
73 74 74 74 74 74 74 74 73 73 73 73 72 72 72 72 71 71 71 71 71 72 72 72 72 72 72 71 71 71 70 70 69 69 69 69 69 68 67 66 65 64 64 64 64 64 64 62 59 58 57 57 56 55 56 56 55 54 52 51 50 50 50 48 48 47 46 45 45
73 74 74 74 74 74 74 74 74 74 74 73 73 72 72 72 72 71 71 72 72 72 71 71 71 71 71 71 71 70 70 70 70 69 69 68 68 68 67 66 65 64 63 62 61 61 60 60 58 57 56 56 55 55 55 56 55 53 51 49 49 49 48 47 46 46 45 45 45
74 74 74 74 74 74 74 74 74 74 73 73 73 73 73 72 72 72 72 72 71 71 71 71 72 72 71 71 71 71 71 70 70 69 68 67 67 67 67 66 64 63 61 61 59 59 59 58 57 56 55 54 53 53 54 54 53 52 50 48 47 47 47 46 46 46 46 46 46
73 73 73 73 73 73 73 73 73 73 73 73 73 73 73 72 72 72 72 72 71 72 72 72 72 71 71 71 72 71 71 70 69 68 68 67 67 66 66 64 62 61 60 59 58 58 57 57 56 55 54 53 52 52 52 51 51 49 48 47 46 45 45 45 46 46 46 46 46
73 73 73 72 73 73 72 72 72 72 72 73 73 73 72 71 71 72 72 72 72 72 72 72 71 71 71 71 71 71 71 70 68 67 66 66 66 65 63 62 61 59 58 58 57 56 56 55 54 53 52 51 50 50 49 49 48 47 46 46 45 44 44 45 46 46 45 45 45
72 72 72 72 72 71 71 71 71 71 72 72 73 73 72 71 72 72 72 72 72 72 72 71 71 71 71 71 71 71 70 69 68 67 66 64 63 63 62 61 60 59 58 57 56 55 55 54 53 52 50 50 49 48 48 48 47 46 45 44 44 44 45 45 45 45 45 45 46
72 72 72 71 71 70 70 69 70 70 71 72 72 72 72 72 73 72 72 72 71 71 71 71 71 71 71 71 71 70 69 68 67 66 64 62 62 61 61 61 60 59 57 57 56 55 54 54 53 51 50 49 49 48 48 47 46 45 45 44 45 45 45 45 45 45 46 46 46
72 71 71 70 70 69 69 69 69 70 71 71 72 72 72 72 72 72 72 71 71 70 71 71 71 71 71 71 69 68 68 66 65 64 62 61 61 60 59 59 58 57 57 56 56 55 54 54 53 51 50 49 49 48 48 47 46 46 45 45 45 44 44 44 45 46 47 47 47
71 71 70 69 69 68 68 68 69 69 70 71 71 72 72 72 72 71 71 70 69 69 70 70 70 70 70 69 67 66 65 64 63 62 61 59 59 58 57 57 56 55 55 55 55 55 54 54 53 52 51 49 48 48 47 47 47 46 46 45 45 45 45 45 46 47 47 46 46
71 70 69 68 68 68 68 68 68 69 70 70 70 71 71 71 71 71 70 69 69 69 69 69 68 68 67 67 66 65 64 63 62 60 59 58 57 57 56 55 54 54 54 54 54 53 53 52 52 51 50 48 48 47 48 48 47 47 47 46 46 46 46 46 46 46 46 46 45
70 69 68 67 67 67 67 66 67 68 69 69 69 69 69 70 70 70 69 69 69 69 68 67 66 65 65 64 64 63 62 61 60 59 58 57 56 56 55 54 53 53 53 53 52 52 51 51 51 50 49 48 48 48 48 48 48 48 47 47 47 46 46 46 45 45 45 45 44
69 68 67 67 67 66 66 66 67 68 69 69 68 68 69 69 69 69 68 68 68 67 66 65 64 63 63 62 62 61 60 59 59 58 57 56 55 55 54 53 52 52 51 51 50 49 49 48 49 49 49 49 49 49 49 49 48 48 47 47 46 46 45 45 44 44 44 44 43
69 68 67 67 67 67 66 66 67 67 68 68 68 68 68 69 69 68 67 67 67 66 64 63 62 62 61 60 60 60 59 58 58 57 56 55 55 54 53 52 51 51 50 49 48 48 47 47 48 49 49 49 49 49 49 48 48 47 47 46 45 45 44 44 44 44 44 44 43
68 68 68 68 68 68 67 67 68 68 68 68 68 68 68 68 68 67 66 66 65 64 63 61 61 60 60 59 59 58 58 57 57 56 55 54 54 53 52 51 50 49 49 48 47 47 47 48 48 49 49 49 49 49 48 47 47 46 45 45 44 43 43 43 43 44 44 44 43
68 68 68 69 69 69 69 68 68 68 68 67 67 68 68 68 68 67 65 64 63 63 62 61 59 59 58 59 58 57 57 56 56 55 54 53 53 52 51 50 49 48 48 47 47 47 47 48 49 49 49 49 48 47 46 46 45 44 44 44 43 43 43 43 43 44 44 44 43
68 69 69 70 69 69 69 69 69 68 68 67 67 67 67 67 66 65 64 63 62 62 61 60 59 58 58 57 57 56 56 55 55 54 53 52 52 51 50 49 48 47 47 46 46 47 47 49 49 49 49 48 46 45 45 44 44 44 44 44 44 43 43 44 44 43 43 43 43
69 69 70 70 70 70 70 69 69 68 68 67 67 67 67 66 65 63 62 62 61 60 60 59 58 58 57 57 56 55 54 54 53 53 52 51 50 50 49 48 47 46 46 46 46 46 47 48 48 47 46 45 44 44 44 44 44 44 44 44 44 44 44 44 44 44 43 43 43
69 70 70 70 70 69 69 69 68 68 67 67 67 66 65 64 63 62 61 60 59 59 58 58 57 57 57 56 55 54 53 52 52 51 50 50 49 48 48 47 46 45 45 45 45 45 45 45 45 44 44 43 43 44 45 45 44 43 43 43 43 43 43 43 43 44 44 44 44
69 69 69 69 69 68 68 68 68 67 67 66 65 64 63 62 61 60 60 59 58 58 57 57 56 56 55 55 54 54 53 52 50 49 49 48 47 47 47 46 45 44 44 44 45 44 44 43 42 42 42 43 44 44 44 44 42 41 42 42 43 43 43 43 43 44 44 44 44
69 69 68 68 67 67 67 67 67 66 66 65 64 63 62 61 60 60 59 58 57 57 56 56 55 54 54 54 53 53 52 51 50 49 48 47 46 46 45 45 44 43 43 44 45 46 45 44 43 43 44 45 45 44 44 42 42 43 43 43 42 42 42 43 43 44 44 44 44
68 68 67 66 67 67 67 67 66 65 64 63 62 61 61 60 60 59 58 56 56 55 55 54 54 53 53 52 52 52 51 50 50 49 47 46 46 45 45 44 44 43 44 45 46 46 46 46 46 46 46 45 45 44 44 43 43 44 43 43 42 42 42 43 43 44 44 45 45
67 66 66 66 66 66 65 65 64 63 63 62 61 60 60 59 58 57 56 55 54 54 53 53 52 52 52 51 51 50 49 49 48 48 47 46 46 45 44 44 44 44 44 46 47 47 47 47 47 46 46 45 44 43 43 43 43 43 43 43 43 43 43 43 43 44 44 45 45
66 66 66 66 65 65 64 64 63 62 61 61 60 60 59 58 57 56 55 54 53 52 52 51 51 51 50 49 49 49 48 48 47 47 46 46 46 45 45 45 45 45 46 47 48 48 47 47 47 46 46 45 44 43 43 43 43 43 43 43 43 43 43 43 43 44 44 45 46
66 65 65 65 64 63 63 62 61 61 60 60 59 59 58 57 56 55 54 53 52 51 50 49 50 49 48 48 48 48 47 47 46 46 46 45 45 45 45 45 45 46 47 48 48 47 47 47 46 46 45 45 44 44 43 43 44 44 44 44 43 43 43 43 43 44 44 45 45
66 65 64 63 62 62 61 61 61 60 60 59 58 57 56 55 54 54 53 52 51 50 49 49 49 48 48 47 47 47 46 46 46 46 46 46 45 45 46 45 46 46 47 48 47 47 46 46 46 45 45 45 44 44 44 43 44 44 44 44 44 43 43 43 44 44 44 44 44
65 64 63 62 62 61 60 60 60 59 59 58 57 56 55 54 53 52 52 51 50 50 49 49 49 48 48 47 47 47 46 46 46 46 46 46 45 45 45 46 46 46 47 47 47 46 46 46 45 45 45 44 44 44 44 43 44 43 43 43 43 43 43 43 43 43 43 43 43
64 63 63 62 61 60 60 59 59 58 57 57 56 55 54 53 52 51 51 50 50 49 49 48 48 47 47 47 47 46 46 46 45 46 46 46 46 46 46 46 47 47 47 47 47 46 46 45 45 44 44 44 43 43 43 43 43 43 43 43 42 43 43 43 43 43 43 42 42
63 62 62 61 60 59 58 58 57 57 56 55 55 54 53 51 51 50 50 50 49 49 48 48 47 47 47 46 46 46 46 46 46 46 46 46 46 46 46 46 47 47 47 47 46 46 45 45 44 44 43 43 43 43 43 43 42 42 41 41 41 42 42 42 42 42 42 42 42
62 61 61 60 59 58 57 57 56 56 55 54 53 52 51 51 50 50 49 49 49 48 48 48 48 47 47 47 47 46 46 46 46 46 46 46 47 47 47 47 47 47 46 46 46 45 45 44 44 43 43 42 42 43 42 42 41 41 40 40 40 41 41 41 42 42 42 42 42
61 60 59 58 58 57 56 56 55 54 53 52 51 51 51 50 50 49 49 49 48 48 48 47 48 48 48 48 47 47 46 46 45 46 46 47 47 47 47 46 47 46 46 46 45 45 44 44 43 43 42 42 42 42 41 41 40 40 40 40 40 40 40 40 41 41 42 42 42
61 60 59 57 57 56 55 55 54 53 52 51 50 50 50 49 49 49 48 48 48 47 47 46 47 46 46 46 46 46 46 46 46 46 46 47 47 46 46 46 46 45 45 45 45 44 44 43 43 42 42 41 41 41 41 40 40 40 40 39 39 39 40 40 41 41 42 42 42
60 59 58 57 56 55 55 54 53 52 51 50 50 49 49 48 48 48 48 48 47 46 46 46 45 45 45 45 45 45 45 46 46 46 46 47 46 46 45 45 44 44 45 45 44 44 44 43 43 42 41 41 40 40 40 40 40 39 39 39 39 40 40 41 41 42 42 42 42
59 59 58 56 55 55 54 54 53 52 51 50 49 48 48 48 48 48 48 48 47 46 45 45 45 44 44 44 44 44 45 45 46 46 46 46 46 46 45 44 44 44 44 44 44 44 43 43 42 42 41 40 40 40 40 40 39 39 39 39 39 40 40 41 42 42 42 42 42
58 58 57 56 55 54 54 53 53 52 51 50 49 48 48 48 47 47 48 48 47 46 45 44 44 44 44 44 44 44 44 45 46 46 46 46 46 45 45 44 44 44 44 44 44 43 43 43 42 42 41 41 40 40 40 39 39 39 39 39 39 40 41 41 42 42 42 41 41
58 57 57 56 55 54 54 53 52 52 51 50 49 48 48 47 47 47 47 48 47 46 45 44 44 44 44 44 44 44 43 44 44 45 46 46 46 45 45 44 44 43 43 43 43 43 43 43 42 42 42 41 41 40 40 39 39 39 39 39 39 40 40 41 42 41 41 41 41
58 58 57 56 55 55 54 53 52 51 51 50 49 48 48 47 47 47 46 46 45 45 44 44 43 43 44 44 43 43 42 42 43 44 45 45 45 45 44 44 43 43 43 43 43 43 43 43 43 42 42 41 41 41 40 40 39 38 39 39 40 40 40 40 41 41 41 41 41
MSLP
1008.64 1008.88 1009.08 1009.32 1009.48 1009.64 1009.80 1009.92 1010.12 1010.28 1010.44 1010.64 1010.80 1011.00 1011.20 1011.36 1011.56 1011.80 1011.96 1012.16 1012.36 1012.52 1012.68 1012.80 1012.96 1013.12 1013.32 1013.52 1013.72 1013.92 1014.12 1014.32 1014.48 1014.68 1014.92 1015.12 1015.24 1015.40 1015.56 1015.68 1015.80 1016.08 1016.36 1016.60 1016.84 1017.04 1017.16 1017.20 1017.36 1017.64 1017.80 1017.80 1017.72 1017.76 1017.80 1017.88 1018.00 1018.16 1018.36 1018.60 1018.84 1019.08 1019.28 1019.52 1019.80 1020.08 1020.28 1020.48 1020.68
1008.56 1008.80 1009.04 1009.24 1009.40 1009.60 1009.76 1009.92 1010.12 1010.32 1010.48 1010.60 1010.76 1010.92 1011.08 1011.28 1011.48 1011.72 1011.92 1012.08 1012.28 1012.44 1012.56 1012.72 1012.92 1013.04 1013.24 1013.44 1013.64 1013.88 1014.08 1014.20 1014.44 1014.64 1014.88 1015.04 1015.20 1015.36 1015.48 1015.60 1015.76 1016.00 1016.32 1016.60 1016.92 1017.12 1017.24 1017.28 1017.44 1017.64 1017.88 1017.96 1017.96 1017.96 1017.96 1018.00 1018.20 1018.40 1018.64 1018.92 1019.16 1019.44 1019.68 1019.96 1020.24 1020.44 1020.60 1020.80 1020.92
1008.52 1008.72 1008.96 1009.16 1009.36 1009.52 1009.72 1009.92 1010.12 1010.24 1010.40 1010.60 1010.76 1010.92 1011.08 1011.24 1011.44 1011.64 1011.84 1012.00 1012.20 1012.36 1012.52 1012.64 1012.84 1013.00 1013.20 1013.40 1013.64 1013.80 1014.00 1014.16 1014.40 1014.64 1014.84 1015.00 1015.16 1015.32 1015.44 1015.60 1015.80 1016.08 1016.36 1016.60 1016.88 1017.08 1017.16 1017.24 1017.44 1017.68 1017.92 1018.08 1018.12 1018.16 1018.20 1018.36 1018.56 1018.80 1019.08 1019.32 1019.52 1019.80 1020.04 1020.28 1020.52 1020.68 1020.84 1021.04 1021.16
1008.48 1008.68 1008.92 1009.12 1009.32 1009.48 1009.64 1009.80 1010.00 1010.20 1010.36 1010.52 1010.72 1010.92 1011.08 1011.24 1011.40 1011.60 1011.80 1011.92 1012.12 1012.32 1012.48 1012.56 1012.72 1012.92 1013.20 1013.36 1013.60 1013.80 1013.96 1014.12 1014.36 1014.60 1014.80 1014.96 1015.12 1015.32 1015.52 1015.76 1015.96 1016.20 1016.36 1016.56 1016.76 1016.88 1017.04 1017.24 1017.48 1017.76 1018.00 1018.12 1018.24 1018.36 1018.52 1018.72 1018.96 1019.20 1019.44 1019.64 1019.88 1020.04 1020.24 1020.52 1020.72 1020.92 1021.12 1021.28 1021.36
1008.44 1008.64 1008.80 1009.04 1009.24 1009.40 1009.56 1009.76 1009.92 1010.08 1010.28 1010.48 1010.64 1010.84 1011.04 1011.20 1011.36 1011.56 1011.76 1011.92 1012.12 1012.24 1012.40 1012.52 1012.68 1012.88 1013.08 1013.32 1013.56 1013.80 1013.96 1014.16 1014.36 1014.60 1014.80 1014.96 1015.16 1015.36 1015.60 1015.88 1016.12 1016.32 1016.52 1016.64 1016.76 1016.84 1017.00 1017.28 1017.64 1017.92 1018.08 1018.20 1018.40 1018.60 1018.80 1018.96 1019.20 1019.44 1019.72 1019.96 1020.16 1020.32 1020.48 1020.72 1020.96 1021.16 1021.32 1021.48 1021.60
1008.36 1008.60 1008.80 1009.00 1009.20 1009.36 1009.52 1009.68 1009.84 1010.04 1010.20 1010.36 1010.56 1010.76 1010.92 1011.12 1011.32 1011.52 1011.72 1011.88 1012.04 1012.20 1012.40 1012.52 1012.68 1012.84 1013.08 1013.32 1013.56 1013.80 1013.96 1014.20 1014.36 1014.60 1014.80 1015.00 1015.24 1015.44 1015.68 1016.00 1016.20 1016.44 1016.64 1016.80 1016.92 1017.08 1017.24 1017.48 1017.80 1018.04 1018.20 1018.36 1018.64 1018.80 1019.00 1019.12 1019.36 1019.64 1019.92 1020.16 1020.36 1020.56 1020.76 1020.96 1021.20 1021.36 1021.52 1021.64 1021.80
1008.32 1008.52 1008.76 1008.96 1009.16 1009.36 1009.52 1009.64 1009.80 1010.00 1010.16 1010.32 1010.52 1010.68 1010.84 1011.04 1011.24 1011.48 1011.64 1011.80 1012.00 1012.20 1012.40 1012.56 1012.72 1012.88 1013.08 1013.32 1013.52 1013.76 1013.92 1014.16 1014.36 1014.60 1014.84 1015.04 1015.24 1015.44 1015.72 1016.04 1016.32 1016.52 1016.80 1016.96 1017.16 1017.32 1017.48 1017.64 1017.92 1018.16 1018.36 1018.52 1018.80 1019.00 1019.20 1019.28 1019.48 1019.72 1020.04 1020.32 1020.60 1020.80 1021.00 1021.24 1021.40 1021.60 1021.68 1021.80 1021.92
1008.32 1008.52 1008.72 1008.92 1009.08 1009.28 1009.48 1009.64 1009.80 1009.92 1010.12 1010.28 1010.44 1010.60 1010.80 1011.00 1011.24 1011.44 1011.64 1011.80 1012.04 1012.20 1012.40 1012.52 1012.68 1012.88 1013.08 1013.24 1013.48 1013.64 1013.88 1014.12 1014.36 1014.64 1014.88 1015.08 1015.28 1015.44 1015.72 1016.04 1016.36 1016.64 1016.88 1017.08 1017.28 1017.48 1017.64 1017.84 1018.08 1018.36 1018.52 1018.72 1018.92 1019.20 1019.36 1019.48 1019.64 1019.88 1020.16 1020.52 1020.80 1021.00 1021.24 1021.44 1021.60 1021.72 1021.84 1021.92 1022.00
1008.32 1008.52 1008.76 1008.92 1009.12 1009.32 1009.52 1009.64 1009.80 1009.92 1010.08 1010.24 1010.40 1010.56 1010.80 1011.00 1011.24 1011.40 1011.60 1011.80 1012.00 1012.20 1012.36 1012.52 1012.72 1012.92 1013.08 1013.24 1013.40 1013.64 1013.88 1014.12 1014.40 1014.68 1014.92 1015.16 1015.36 1015.52 1015.80 1016.12 1016.44 1016.72 1016.96 1017.24 1017.44 1017.60 1017.76 1018.00 1018.28 1018.52 1018.76 1018.92 1019.12 1019.36 1019.60 1019.68 1019.84 1020.08 1020.32 1020.64 1020.92 1021.24 1021.44 1021.64 1021.80 1021.88 1021.96 1022.08 1022.12
1008.28 1008.52 1008.76 1008.96 1009.20 1009.36 1009.52 1009.72 1009.84 1010.00 1010.16 1010.28 1010.44 1010.60 1010.80 1011.08 1011.24 1011.40 1011.60 1011.80 1011.96 1012.16 1012.32 1012.56 1012.76 1012.96 1013.12 1013.28 1013.44 1013.64 1013.88 1014.16 1014.48 1014.76 1015.00 1015.24 1015.48 1015.68 1015.96 1016.28 1016.56 1016.84 1017.08 1017.36 1017.56 1017.72 1017.92 1018.16 1018.48 1018.76 1019.00 1019.24 1019.40 1019.64 1019.80 1019.92 1020.08 1020.24 1020.52 1020.84 1021.12 1021.36 1021.60 1021.80 1021.92 1022.08 1022.16 1022.24 1022.28
1008.20 1008.52 1008.76 1009.00 1009.24 1009.44 1009.64 1009.80 1009.96 1010.12 1010.24 1010.36 1010.52 1010.68 1010.92 1011.12 1011.28 1011.40 1011.56 1011.76 1011.96 1012.16 1012.36 1012.60 1012.80 1013.04 1013.20 1013.32 1013.48 1013.68 1013.96 1014.24 1014.52 1014.84 1015.08 1015.36 1015.64 1015.88 1016.12 1016.40 1016.64 1016.92 1017.20 1017.48 1017.68 1017.88 1018.08 1018.36 1018.64 1018.96 1019.24 1019.48 1019.64 1019.88 1020.08 1020.20 1020.32 1020.52 1020.76 1021.08 1021.28 1021.48 1021.64 1021.88 1022.08 1022.20 1022.32 1022.36 1022.44
1008.20 1008.52 1008.76 1009.00 1009.24 1009.52 1009.72 1009.88 1010.04 1010.20 1010.32 1010.48 1010.60 1010.80 1011.00 1011.16 1011.32 1011.48 1011.64 1011.84 1012.08 1012.24 1012.44 1012.64 1012.84 1013.04 1013.20 1013.32 1013.52 1013.80 1014.08 1014.36 1014.64 1014.92 1015.24 1015.52 1015.80 1016.04 1016.28 1016.52 1016.80 1017.08 1017.32 1017.56 1017.80 1018.04 1018.24 1018.48 1018.80 1019.08 1019.36 1019.60 1019.84 1020.08 1020.32 1020.44 1020.52 1020.72 1020.96 1021.24 1021.44 1021.60 1021.80 1022.04 1022.20 1022.36 1022.44 1022.52 1022.56
1008.16 1008.48 1008.76 1009.08 1009.36 1009.56 1009.76 1009.92 1010.08 1010.24 1010.36 1010.52 1010.68 1010.88 1011.04 1011.24 1011.36 1011.52 1011.76 1011.92 1012.16 1012.36 1012.56 1012.76 1012.92 1013.04 1013.20 1013.40 1013.68 1013.96 1014.24 1014.52 1014.80 1015.08 1015.40 1015.68 1015.96 1016.24 1016.48 1016.72 1016.96 1017.24 1017.48 1017.68 1017.92 1018.16 1018.36 1018.64 1018.88 1019.12 1019.36 1019.64 1019.96 1020.28 1020.52 1020.64 1020.76 1020.88 1021.08 1021.36 1021.60 1021.80 1022.00 1022.20 1022.32 1022.40 1022.52 1022.56 1022.68
1008.12 1008.44 1008.80 1009.08 1009.36 1009.60 1009.80 1009.96 1010.16 1010.32 1010.44 1010.60 1010.76 1010.92 1011.08 1011.28 1011.48 1011.64 1011.80 1012.08 1012.28 1012.48 1012.64 1012.84 1012.96 1013.12 1013.32 1013.60 1013.92 1014.20 1014.44 1014.72 1015.00 1015.28 1015.60 1015.92 1016.20 1016.44 1016.68 1016.92 1017.20 1017.40 1017.64 1017.92 1018.08 1018.32 1018.52 1018.80 1019.00 1019.24 1019.48 1019.80 1020.12 1020.44 1020.68 1020.84 1020.92 1021.08 1021.24 1021.48 1021.72 1021.92 1022.08 1022.24 1022.40 1022.52 1022.60 1022.72 1022.88
1008.12 1008.48 1008.80 1009.08 1009.36 1009.56 1009.76 1010.00 1010.20 1010.36 1010.52 1010.68 1010.84 1011.04 1011.24 1011.40 1011.60 1011.76 1011.92 1012.16 1012.36 1012.56 1012.72 1012.92 1013.16 1013.36 1013.56 1013.80 1014.08 1014.36 1014.64 1014.92 1015.24 1015.52 1015.80 1016.16 1016.36 1016.64 1016.88 1017.20 1017.40 1017.64 1017.88 1018.12 1018.36 1018.56 1018.80 1018.96 1019.20 1019.40 1019.64 1019.96 1020.28 1020.60 1020.80 1020.96 1021.12 1021.28 1021.44 1021.64 1021.80 1022.04 1022.20 1022.36 1022.52 1022.64 1022.80 1022.92 1023.08
1008.12 1008.48 1008.76 1009.08 1009.32 1009.52 1009.80 1010.00 1010.20 1010.36 1010.52 1010.72 1010.92 1011.12 1011.36 1011.52 1011.64 1011.84 1012.04 1012.28 1012.44 1012.64 1012.84 1013.12 1013.36 1013.64 1013.84 1014.08 1014.36 1014.64 1014.92 1015.20 1015.44 1015.72 1016.00 1016.32 1016.60 1016.84 1017.08 1017.36 1017.64 1017.84 1018.08 1018.32 1018.56 1018.84 1019.08 1019.24 1019.48 1019.68 1019.92 1020.20 1020.44 1020.68 1020.92 1021.08 1021.24 1021.44 1021.64 1021.80 1022.04 1022.20 1022.40 1022.60 1022.80 1022.92 1023.04 1023.16 1023.28
1008.08 1008.44 1008.72 1009.00 1009.24 1009.52 1009.76 1010.00 1010.20 1010.36 1010.52 1010.76 1010.96 1011.20 1011.40 1011.56 1011.76 1011.92 1012.16 1012.36 1012.52 1012.76 1013.04 1013.32 1013.56 1013.80 1014.08 1014.36 1014.60 1014.88 1015.16 1015.44 1015.64 1015.92 1016.20 1016.52 1016.76 1017.04 1017.32 1017.60 1017.84 1018.08 1018.28 1018.52 1018.80 1019.08 1019.36 1019.60 1019.80 1020.00 1020.20 1020.36 1020.64 1020.80 1021.04 1021.24 1021.44 1021.64 1021.88 1022.08 1022.32 1022.52 1022.72 1022.92 1023.08 1023.20 1023.32 1023.40 1023.52
1008.08 1008.36 1008.64 1008.92 1009.12 1009.40 1009.68 1009.92 1010.16 1010.36 1010.52 1010.76 1011.00 1011.24 1011.44 1011.60 1011.80 1012.00 1012.20 1012.44 1012.64 1012.88 1013.20 1013.52 1013.76 1014.00 1014.28 1014.56 1014.84 1015.08 1015.36 1015.64 1015.84 1016.12 1016.44 1016.72 1016.96 1017.24 1017.52 1017.84 1018.08 1018.32 1018.56 1018.80 1019.08 1019.36 1019.64 1019.84 1020.04 1020.20 1020.40 1020.60 1020.80 1021.00 1021.24 1021.44 1021.68 1021.92 1022.16 1022.36 1022.60 1022.80 1023.04 1023.20 1023.32 1023.40 1023.52 1023.60 1023.68
1008.00 1008.28 1008.56 1008.80 1009.04 1009.32 1009.60 1009.84 1010.04 1010.24 1010.52 1010.76 1011.00 1011.24 1011.44 1011.64 1011.80 1012.04 1012.28 1012.52 1012.80 1013.04 1013.32 1013.64 1013.92 1014.20 1014.48 1014.72 1015.00 1015.28 1015.56 1015.80 1016.08 1016.36 1016.68 1016.96 1017.24 1017.48 1017.76 1018.08 1018.36 1018.64 1018.88 1019.08 1019.36 1019.60 1019.84 1020.08 1020.20 1020.40 1020.60 1020.80 1021.04 1021.24 1021.48 1021.72 1021.92 1022.20 1022.44 1022.68 1022.92 1023.12 1023.32 1023.44 1023.56 1023.64 1023.72 1023.80 1023.92
1007.96 1008.20 1008.48 1008.68 1008.92 1009.24 1009.52 1009.72 1009.96 1010.20 1010.48 1010.76 1011.00 1011.24 1011.44 1011.64 1011.80 1012.08 1012.36 1012.64 1012.92 1013.20 1013.48 1013.80 1014.08 1014.36 1014.64 1014.92 1015.24 1015.52 1015.80 1016.08 1016.32 1016.64 1016.92 1017.24 1017.48 1017.72 1018.00 1018.28 1018.60 1018.88 1019.16 1019.36 1019.60 1019.84 1020.08 1020.24 1020.44 1020.60 1020.80 1021.00 1021.24 1021.52 1021.76 1022.00 1022.24 1022.52 1022.76 1022.96 1023.20 1023.36 1023.52 1023.64 1023.76 1023.84 1023.96 1024.08 1024.20
1007.92 1008.16 1008.36 1008.60 1008.88 1009.12 1009.40 1009.64 1009.92 1010.20 1010.52 1010.76 1011.00 1011.24 1011.44 1011.68 1011.92 1012.20 1012.52 1012.80 1013.08 1013.36 1013.64 1013.92 1014.20 1014.52 1014.80 1015.08 1015.40 1015.72 1016.04 1016.32 1016.56 1016.84 1017.16 1017.48 1017.72 1018.00 1018.28 1018.52 1018.84 1019.16 1019.40 1019.64 1019.88 1020.08 1020.24 1020.40 1020.64 1020.80 1021.00 1021.24 1021.52 1021.76 1021.96 1022.20 1022.52 1022.72 1022.92 1023.16 1023.44 1023.60 1023.72 1023.80 1023.92 1024.08 1024.20 1024.36 1024.48
1007.92 1008.12 1008.36 1008.60 1008.84 1009.08 1009.36 1009.64 1009.92 1010.20 1010.52 1010.80 1011.00 1011.24 1011.52 1011.80 1012.08 1012.40 1012.68 1012.92 1013.24 1013.52 1013.84 1014.16 1014.44 1014.72 1015.00 1015.28 1015.60 1015.92 1016.24 1016.60 1016.84 1017.12 1017.40 1017.68 1018.04 1018.32 1018.60 1018.80 1019.08 1019.36 1019.64 1019.88 1020.08 1020.24 1020.44 1020.64 1020.88 1021.08 1021.36 1021.56 1021.80 1021.96 1022.16 1022.36 1022.60 1022.84 1023.08 1023.36 1023.60 1023.80 1023.92 1024.04 1024.16 1024.28 1024.44 1024.60 1024.72
1007.92 1008.12 1008.36 1008.64 1008.84 1009.12 1009.36 1009.64 1009.96 1010.28 1010.56 1010.80 1011.04 1011.32 1011.64 1011.96 1012.32 1012.64 1012.92 1013.16 1013.48 1013.80 1014.12 1014.44 1014.72 1015.00 1015.24 1015.52 1015.80 1016.12 1016.48 1016.80 1017.12 1017.44 1017.72 1018.00 1018.32 1018.60 1018.84 1019.08 1019.32 1019.60 1019.88 1020.08 1020.28 1020.44 1020.64 1020.92 1021.24 1021.44 1021.64 1021.84 1022.00 1022.20 1022.36 1022.56 1022.80 1023.08 1023.36 1023.56 1023.72 1023.92 1024.08 1024.24 1024.40 1024.52 1024.68 1024.80 1024.92
1007.88 1008.12 1008.40 1008.64 1008.92 1009.20 1009.48 1009.76 1010.00 1010.28 1010.56 1010.84 1011.12 1011.44 1011.80 1012.20 1012.52 1012.80 1013.08 1013.36 1013.68 1014.04 1014.36 1014.68 1015.04 1015.32 1015.56 1015.80 1016.08 1016.36 1016.64 1017.00 1017.36 1017.72 1018.04 1018.28 1018.52 1018.80 1019.08 1019.36 1019.64 1019.92 1020.16 1020.36 1020.52 1020.68 1020.88 1021.16 1021.48 1021.72 1021.88 1022.00 1022.20 1022.40 1022.64 1022.92 1023.16 1023.36 1023.52 1023.64 1023.84 1024.08 1024.24 1024.48 1024.60 1024.72 1024.80 1024.92 1025.04
1007.88 1008.16 1008.44 1008.76 1009.04 1009.32 1009.56 1009.80 1010.00 1010.28 1010.56 1010.92 1011.24 1011.64 1011.96 1012.32 1012.64 1012.92 1013.24 1013.56 1013.92 1014.24 1014.56 1014.92 1015.24 1015.60 1015.84 1016.12 1016.40 1016.64 1016.92 1017.24 1017.52 1017.88 1018.20 1018.52 1018.76 1019.00 1019.28 1019.60 1019.92 1020.20 1020.40 1020.60 1020.76 1020.92 1021.08 1021.28 1021.52 1021.76 1021.92 1022.12 1022.40 1022.72 1023.00 1023.24 1023.40 1023.52 1023.64 1023.80 1024.00 1024.20 1024.40 1024.60 1024.72 1024.84 1024.92 1025.08 1025.16
1007.92 1008.24 1008.56 1008.84 1009.08 1009.36 1009.60 1009.80 1010.00 1010.32 1010.64 1011.04 1011.44 1011.80 1012.08 1012.48 1012.76 1013.04 1013.36 1013.72 1014.08 1014.44 1014.80 1015.08 1015.48 1015.80 1016.08 1016.36 1016.64 1016.92 1017.24 1017.52 1017.80 1018.04 1018.36 1018.68 1018.96 1019.24 1019.48 1019.80 1020.08 1020.36 1020.60 1020.76 1020.92 1021.12 1021.28 1021.40 1021.56 1021.76 1022.00 1022.28 1022.56 1022.88 1023.20 1023.44 1023.60 1023.72 1023.88 1024.00 1024.20 1024.36 1024.48 1024.64 1024.80 1024.88 1024.96 1025.08 1025.24
1008.04 1008.36 1008.64 1008.92 1009.20 1009.48 1009.68 1009.92 1010.16 1010.48 1010.80 1011.20 1011.56 1011.92 1012.20 1012.56 1012.88 1013.24 1013.56 1013.92 1014.28 1014.64 1014.96 1015.32 1015.68 1016.00 1016.32 1016.60 1016.88 1017.20 1017.52 1017.80 1018.12 1018.36 1018.56 1018.80 1019.08 1019.36 1019.64 1020.00 1020.24 1020.52 1020.80 1020.92 1021.08 1021.24 1021.44 1021.60 1021.76 1021.92 1022.16 1022.48 1022.76 1023.04 1023.28 1023.52 1023.76 1023.92 1024.08 1024.24 1024.36 1024.52 1024.60 1024.68 1024.80 1024.92 1025.00 1025.12 1025.24
1008.12 1008.40 1008.68 1008.96 1009.24 1009.52 1009.80 1010.04 1010.32 1010.64 1011.00 1011.36 1011.68 1012.04 1012.36 1012.68 1013.04 1013.36 1013.72 1014.08 1014.44 1014.80 1015.16 1015.52 1015.88 1016.20 1016.52 1016.84 1017.12 1017.40 1017.72 1018.08 1018.36 1018.64 1018.84 1019.04 1019.24 1019.52 1019.80 1020.08 1020.36 1020.64 1020.84 1021.00 1021.20 1021.36 1021.56 1021.80 1021.96 1022.20 1022.40 1022.64 1022.92 1023.20 1023.44 1023.68 1023.88 1024.08 1024.24 1024.36 1024.52 1024.64 1024.76 1024.80 1024.92 1024.96 1025.08 1025.16 1025.24
1008.20 1008.52 1008.80 1009.04 1009.32 1009.60 1009.88 1010.20 1010.52 1010.84 1011.20 1011.52 1011.84 1012.20 1012.52 1012.84 1013.20 1013.52 1013.84 1014.20 1014.52 1014.92 1015.28 1015.68 1016.08 1016.40 1016.72 1017.08 1017.36 1017.64 1017.92 1018.24 1018.52 1018.80 1019.04 1019.24 1019.52 1019.72 1019.96 1020.20 1020.52 1020.76 1020.96 1021.12 1021.32 1021.52 1021.80 1022.04 1022.24 1022.48 1022.68 1022.80 1023.08 1023.36 1023.64 1023.80 1024.00 1024.20 1024.36 1024.52 1024.68 1024.80 1024.88 1024.92 1025.00 1025.08 1025.16 1025.24 1025.36
1008.28 1008.56 1008.80 1009.08 1009.36 1009.68 1010.04 1010.36 1010.72 1011.08 1011.40 1011.76 1012.12 1012.44 1012.68 1012.96 1013.32 1013.64 1014.00 1014.32 1014.64 1015.00 1015.36 1015.68 1016.12 1016.52 1016.88 1017.20 1017.52 1017.84 1018.16 1018.48 1018.72 1018.92 1019.12 1019.36 1019.64 1019.92 1020.20 1020.40 1020.68 1020.92 1021.12 1021.28 1021.52 1021.76 1022.00 1022.24 1022.48 1022.68 1022.88 1023.04 1023.24 1023.52 1023.80 1023.96 1024.16 1024.32 1024.48 1024.60 1024.76 1024.84 1024.92 1025.04 1025.12 1025.24 1025.28 1025.36 1025.52
1008.36 1008.64 1008.92 1009.16 1009.52 1009.84 1010.20 1010.60 1010.92 1011.32 1011.68 1012.08 1012.36 1012.64 1012.84 1013.08 1013.44 1013.80 1014.12 1014.44 1014.80 1015.12 1015.48 1015.80 1016.20 1016.64 1017.00 1017.36 1017.64 1017.96 1018.32 1018.60 1018.84 1019.04 1019.24 1019.44 1019.76 1020.08 1020.36 1020.56 1020.84 1021.08 1021.32 1021.52 1021.68 1021.92 1022.20 1022.40 1022.64 1022.84 1023.08 1023.24 1023.40 1023.68 1023.92 1024.16 1024.32 1024.48 1024.60 1024.76 1024.88 1025.00 1025.12 1025.24 1025.32 1025.40 1025.52 1025.64 1025.76
1008.44 1008.76 1009.00 1009.32 1009.68 1010.08 1010.44 1010.80 1011.24 1011.60 1011.92 1012.32 1012.64 1012.84 1013.04 1013.28 1013.64 1014.00 1014.32 1014.60 1014.88 1015.24 1015.56 1015.92 1016.36 1016.80 1017.20 1017.52 1017.84 1018.12 1018.44 1018.68 1018.92 1019.16 1019.36 1019.60 1019.88 1020.20 1020.48 1020.76 1021.04 1021.32 1021.52 1021.68 1021.88 1022.12 1022.36 1022.60 1022.80 1023.04 1023.24 1023.44 1023.68 1023.92 1024.12 1024.36 1024.52 1024.64 1024.80 1024.92 1025.08 1025.24 1025.32 1025.36 1025.48 1025.64 1025.76 1025.84 1025.96
1008.52 1008.84 1009.16 1009.44 1009.84 1010.24 1010.68 1011.08 1011.48 1011.84 1012.20 1012.56 1012.92 1013.12 1013.32 1013.52 1013.88 1014.20 1014.52 1014.80 1015.00 1015.28 1015.64 1016.04 1016.44 1016.88 1017.28 1017.64 1017.96 1018.28 1018.56 1018.80 1019.08 1019.32 1019.52 1019.72 1019.96 1020.24 1020.56 1020.92 1021.28 1021.56 1021.76 1021.92 1022.08 1022.32 1022.56 1022.80 1023.04 1023.24 1023.52 1023.72 1023.96 1024.20 1024.36 1024.56 1024.72 1024.92 1025.08 1025.24 1025.36 1025.48 1025.52 1025.64 1025.68 1025.80 1025.92 1026.08 1026.20
1008.64 1009.00 1009.32 1009.64 1010.04 1010.48 1010.92 1011.36 1011.72 1012.08 1012.48 1012.84 1013.16 1013.36 1013.52 1013.76 1014.08 1014.40 1014.72 1014.96 1015.16 1015.40 1015.76 1016.12 1016.52 1016.92 1017.32 1017.64 1017.96 1018.32 1018.64 1018.96 1019.24 1019.48 1019.68 1019.88 1020.08 1020.32 1020.60 1021.00 1021.40 1021.76 1021.96 1022.12 1022.32 1022.52 1022.80 1023.04 1023.24 1023.52 1023.72 1023.92 1024.20 1024.40 1024.60 1024.76 1024.92 1025.08 1025.28 1025.44 1025.56 1025.68 1025.80 1025.88 1025.96 1026.08 1026.20 1026.32 1026.44
1008.76 1009.08 1009.48 1009.80 1010.20 1010.64 1011.08 1011.56 1011.92 1012.28 1012.64 1013.04 1013.36 1013.60 1013.80 1013.92 1014.20 1014.52 1014.80 1015.08 1015.32 1015.64 1016.04 1016.36 1016.76 1017.12 1017.52 1017.84 1018.12 1018.40 1018.72 1019.08 1019.36 1019.64 1019.80 1020.00 1020.20 1020.40 1020.72 1021.08 1021.52 1021.92 1022.16 1022.36 1022.52 1022.76 1022.96 1023.24 1023.48 1023.68 1023.92 1024.16 1024.36 1024.60 1024.80 1024.92 1025.08 1025.24 1025.40 1025.60 1025.76 1025.92 1026.04 1026.08 1026.20 1026.36 1026.44 1026.52 1026.64
1008.80 1009.20 1009.60 1009.96 1010.36 1010.80 1011.28 1011.72 1012.12 1012.52 1012.88 1013.24 1013.52 1013.80 1014.00 1014.20 1014.44 1014.68 1014.96 1015.24 1015.52 1015.80 1016.20 1016.64 1016.96 1017.32 1017.72 1018.12 1018.40 1018.64 1018.88 1019.12 1019.44 1019.72 1019.92 1020.12 1020.32 1020.56 1020.88 1021.28 1021.72 1022.08 1022.36 1022.52 1022.76 1022.96 1023.20 1023.44 1023.64 1023.88 1024.08 1024.32 1024.60 1024.80 1024.92 1025.08 1025.24 1025.44 1025.60 1025.76 1025.92 1026.08 1026.20 1026.32 1026.44 1026.52 1026.64 1026.76 1026.80
1008.92 1009.28 1009.68 1010.08 1010.48 1010.92 1011.36 1011.84 1012.24 1012.64 1013.04 1013.36 1013.68 1013.92 1014.12 1014.36 1014.64 1014.92 1015.20 1015.40 1015.68 1016.04 1016.36 1016.72 1017.08 1017.48 1017.84 1018.20 1018.60 1018.88 1019.08 1019.24 1019.48 1019.76 1020.08 1020.32 1020.48 1020.68 1021.04 1021.48 1021.92 1022.28 1022.56 1022.76 1022.92 1023.16 1023.40 1023.64 1023.84 1024.04 1024.20 1024.44 1024.68 1024.92 1025.04 1025.20 1025.36 1025.60 1025.76 1025.92 1026.08 1026.24 1026.36 1026.52 1026.64 1026.72 1026.80 1026.92 1026.96
1009.08 1009.40 1009.80 1010.20 1010.60 1011.04 1011.52 1012.00 1012.40 1012.80 1013.16 1013.52 1013.80 1014.04 1014.24 1014.48 1014.80 1015.08 1015.36 1015.56 1015.84 1016.20 1016.56 1016.88 1017.24 1017.64 1018.00 1018.36 1018.76 1019.08 1019.36 1019.52 1019.64 1019.84 1020.20 1020.52 1020.72 1020.92 1021.20 1021.60 1022.08 1022.44 1022.76 1022.96 1023.16 1023.36 1023.64 1023.80 1024.00 1024.20 1024.36 1024.52 1024.76 1024.92 1025.08 1025.28 1025.48 1025.68 1025.88 1026.08 1026.24 1026.36 1026.52 1026.60 1026.76 1026.88 1026.96 1027.08 1027.20
1009.24 1009.56 1009.92 1010.28 1010.72 1011.20 1011.64 1012.12 1012.52 1012.92 1013.24 1013.60 1013.92 1014.16 1014.36 1014.60 1014.92 1015.24 1015.52 1015.80 1016.00 1016.32 1016.68 1017.08 1017.48 1017.88 1018.20 1018.52 1018.88 1019.24 1019.56 1019.80 1019.92 1020.08 1020.32 1020.64 1020.96 1021.16 1021.36 1021.72 1022.16 1022.60 1022.92 1023.20 1023.36 1023.60 1023.80 1023.96 1024.16 1024.32 1024.52 1024.64 1024.80 1024.96 1025.16 1025.36 1025.56 1025.76 1025.92 1026.12 1026.32 1026.48 1026.60 1026.68 1026.84 1027.00 1027.16 1027.32 1027.44
1009.36 1009.72 1010.04 1010.40 1010.84 1011.28 1011.80 1012.24 1012.64 1013.04 1013.36 1013.60 1013.92 1014.20 1014.48 1014.72 1015.04 1015.40 1015.76 1016.08 1016.36 1016.64 1016.92 1017.32 1017.68 1018.08 1018.36 1018.64 1019.00 1019.36 1019.72 1020.00 1020.20 1020.36 1020.56 1020.88 1021.24 1021.48 1021.64 1021.88 1022.24 1022.68 1023.08 1023.36 1023.60 1023.80 1023.96 1024.12 1024.28 1024.44 1024.60 1024.76 1024.92 1025.08 1025.24 1025.40 1025.60 1025.80 1025.96 1026.12 1026.28 1026.48 1026.64 1026.80 1026.96 1027.16 1027.32 1027.48 1027.60
1009.52 1009.88 1010.20 1010.56 1010.96 1011.40 1011.88 1012.36 1012.80 1013.12 1013.40 1013.60 1013.88 1014.20 1014.52 1014.80 1015.16 1015.52 1015.92 1016.36 1016.68 1016.96 1017.28 1017.64 1017.96 1018.28 1018.56 1018.84 1019.16 1019.48 1019.80 1020.16 1020.48 1020.72 1020.92 1021.12 1021.44 1021.72 1021.92 1022.12 1022.44 1022.80 1023.24 1023.52 1023.80 1023.96 1024.12 1024.28 1024.44 1024.52 1024.64 1024.80 1024.96 1025.16 1025.32 1025.44 1025.60 1025.80 1025.96 1026.12 1026.24 1026.44 1026.64 1026.84 1027.08 1027.24 1027.36 1027.52 1027.64
Wind_Speed
11 10 9 9 8 7 7 7 7 7 7 7 7 7 7 7 7 6 6 6 6 6 6 6 6 7 8 10 11 11 11 11 11 11 10 10 10 10 10 9 9 8 8 7 7 5 4 4 4 3 2 2 2 3 3 3 5 5 6 6 6 7 8 9 8 9 9 9 7
13 12 11 10 9 7 7 7 7 7 7 6 7 7 7 7 7 6 6 6 6 6 6 6 7 8 9 11 11 11 11 11 11 11 10 10 10 10 9 8 8 9 9 9 7 5 4 5 5 4 3 2 2 3 3 4 5 7 8 8 7 7 7 8 8 9 9 8 7
13 12 11 11 10 9 8 7 8 8 8 7 7 7 7 6 6 6 6 6 7 7 6 6 7 8 10 11 11 11 11 11 11 11 10 9 9 9 8 7 8 9 9 9 8 7 6 6 5 5 4 3 3 4 5 6 7 8 8 8 7 6 6 6 7 7 7 6 6
13 13 12 12 12 11 9 8 9 10 9 8 7 7 7 6 6 6 6 7 8 7 7 6 7 8 9 10 11 10 10 10 11 11 10 9 9 9 8 8 8 8 8 8 8 8 8 7 6 5 5 5 5 5 5 6 7 7 7 6 6 6 6 6 6 5 5 6 6
13 12 12 12 13 12 10 9 10 10 9 8 7 7 7 6 6 6 6 7 7 7 7 8 8 8 9 10 11 11 11 10 10 10 9 9 9 9 9 9 8 7 7 7 7 7 8 8 6 5 5 6 5 5 6 8 8 8 7 5 5 6 6 6 5 5 5 5 5
13 13 12 12 13 12 10 10 11 11 9 8 8 8 7 6 6 6 7 7 7 8 9 9 8 8 9 10 11 11 10 10 10 9 9 9 9 10 10 10 9 8 7 6 7 7 8 8 6 5 5 6 6 7 8 9 9 8 7 6 6 6 6 6 6 5 6 7 7
13 13 13 13 13 12 10 10 11 10 9 8 9 10 9 8 8 8 8 8 8 8 8 8 8 8 9 10 10 10 10 10 9 9 9 9 9 10 11 10 10 9 8 8 8 8 8 7 6 5 5 6 5 7 8 9 9 9 8 7 6 6 7 7 6 6 7 9 9
13 13 13 13 13 12 12 12 11 10 9 8 9 10 11 10 10 10 9 8 8 8 8 7 8 9 10 10 10 10 10 10 10 10 9 9 9 10 11 11 10 10 10 9 8 8 8 7 6 5 5 5 5 6 8 10 10 10 10 9 7 7 6 6 6 6 7 9 9
12 12 13 13 12 12 12 12 11 10 9 9 10 10 11 11 11 10 10 8 8 8 8 8 9 10 11 11 10 10 10 10 10 10 10 9 10 10 10 11 11 10 10 9 9 9 9 7 6 6 6 5 6 7 9 11 12 12 11 10 8 8 7 7 7 8 8 9 9
13 13 12 12 12 12 12 12 11 10 10 9 10 10 10 10 10 10 9 8 8 8 8 9 10 10 11 11 10 10 10 10 10 10 10 10 10 10 11 11 11 11 10 9 9 9 9 8 8 7 7 7 8 9 10 11 12 12 11 8 9 10 10 9 9 9 9 9 10
14 13 13 12 12 12 11 11 10 10 9 9 10 10 10 10 10 9 8 8 9 9 10 10 10 11 10 10 10 10 10 10 10 10 11 11 11 11 11 11 12 11 11 10 9 8 8 8 9 10 10 10 10 10 10 11 12 12 12 10 11 11 12 11 10 9 9 9 11
15 14 13 12 13 12 11 10 9 9 9 9 10 10 10 10 10 9 9 9 10 10 10 10 11 11 10 9 9 10 10 10 11 11 11 11 11 11 11 12 12 12 11 11 9 8 8 10 11 12 12 11 9 9 10 12 13 13 13 12 12 12 12 11 10 9 8 9 11
15 14 14 13 13 12 11 10 9 8 9 9 10 9 9 9 10 10 10 10 10 9 9 10 10 10 10 9 9 10 10 11 11 11 11 11 11 11 12 12 12 12 11 10 9 9 9 11 13 13 13 12 10 10 10 12 12 13 13 13 12 12 11 11 10 9 9 10 10
16 15 15 14 14 12 11 10 8 8 9 10 9 9 9 9 9 10 10 10 10 9 9 9 9 9 9 10 10 11 11 11 12 12 12 11 11 12 12 11 11 11 10 9 10 10 11 12 13 14 14 14 13 12 11 12 12 13 13 13 13 12 12 11 11 10 11 11 11
16 16 15 15 14 12 11 10 8 8 9 10 9 9 9 8 9 9 9 10 10 10 9 9 8 8 9 11 12 12 12 12 13 13 13 12 12 12 12 12 11 11 10 10 10 11 12 13 13 14 14 15 14 13 12 12 12 12 12 13 13 12 12 11 11 11 11 11 11
17 17 16 15 14 12 11 9 8 8 9 9 9 9 9 8 9 9 9 10 9 9 9 9 9 9 10 11 12 13 13 13 13 13 13 13 13 13 13 12 12 12 12 12 12 11 11 12 13 14 14 15 14 14 13 13 13 13 13 13 13 12 12 11 11 11 10 11 11
17 17 16 15 14 13 12 10 8 8 9 10 10 10 9 9 9 9 9 10 9 9 10 10 9 9 10 11 12 12 12 12 13 13 13 13 13 13 13 13 13 13 13 14 13 13 12 12 12 13 14 14 14 14 14 14 13 13 13 13 13 12 12 11 11 11 11 11 11
18 17 17 16 16 15 13 12 11 11 11 12 11 10 10 10 10 10 10 10 10 11 11 11 10 11 11 12 11 11 11 12 12 12 12 13 13 14 14 14 13 13 13 14 14 14 13 13 13 13 14 14 14 14 14 14 14 14 14 14 13 12 12 11 10 10 10 11 11
18 17 17 17 16 16 15 14 13 13 13 13 12 11 11 11 12 11 11 11 11 12 12 12 12 12 12 13 12 11 11 12 13 13 13 13 14 14 14 14 14 14 14 14 14 14 14 14 14 14 14 14 14 14 14 14 14 14 14 14 13 12 11 11 10 10 10 11 11
18 18 17 17 17 16 16 15 15 14 14 13 13 13 13 13 13 13 12 12 12 13 13 13 13 13 13 14 13 13 12 12 13 14 14 14 14 15 15 15 14 14 14 14 13 14 14 14 14 14 15 15 15 15 15 15 15 14 14 13 12 12 11 11 11 11 11 11 11
18 17 17 17 17 16 16 15 15 15 14 14 14 14 14 14 14 14 14 13 14 14 14 14 14 14 14 15 15 14 13 12 13 14 14 14 15 15 15 15 14 14 13 13 13 13 14 14 15 15 15 15 16 16 15 15 15 15 14 13 12 12 12 12 12 12 12 12 12
17 17 17 17 16 16 16 16 15 15 15 15 15 15 15 14 14 14 14 14 14 14 14 14 15 15 15 15 15 14 13 12 13 14 14 14 14 14 14 14 14 14 14 13 13 13 14 15 15 15 15 14 15 15 15 15 15 15 15 14 14 13 13 13 12 12 12 12 12
16 16 16 16 16 16 16 16 16 16 16 15 15 15 15 14 14 15 15 15 15 14 14 14 14 14 15 15 15 15 15 14 14 14 14 14 14 14 14 13 14 14 13 12 12 13 14 14 14 14 13 13 14 15 15 16 15 15 14 15 15 14 14 13 13 13 13 13 13
17 16 15 14 15 16 16 16 16 16 16 16 16 15 15 15 15 15 16 16 15 15 14 13 13 14 15 15 16 16 16 17 16 16 15 15 14 14 14 13 12 11 10 10 11 12 13 12 12 12 12 13 13 14 14 14 13 13 14 15 15 14 14 13 13 13 13 13 12
17 16 15 14 15 16 16 16 17 17 16 16 16 16 16 16 16 16 16 16 16 16 16 15 14 14 14 15 15 16 16 17 17 17 16 15 15 14 13 12 11 9 9 11 15 17 17 14 12 11 11 13 13 14 14 13 13 13 14 14 14 14 14 14 13 13 13 12 12
16 16 16 16 16 16 16 17 17 17 17 16 16 16 16 16 16 17 17 17 17 16 16 16 15 14 13 14 14 15 15 15 16 16 16 16 15 14 13 11 10 9 9 14 19 20 19 18 16 15 13 13 13 13 13 12 13 13 13 13 13 13 13 13 13 12 12 12 12
16 16 17 17 17 17 16 16 16 17 17 17 17 17 17 16 16 17 17 17 17 17 16 15 14 14 13 13 15 15 14 13 14 15 16 16 16 15 13 11 10 9 11 17 20 21 20 20 19 18 16 13 13 12 11 11 12 13 13 12 12 12 12 12 12 12 12 12 12
16 17 17 17 17 17 16 16 16 16 17 17 17 17 17 17 18 18 18 17 17 16 14 13 13 12 11 11 14 15 15 14 14 14 14 15 15 15 14 12 11 12 15 20 21 21 21 20 20 19 17 15 13 12 12 11 11 11 11 10 11 11 11 11 11 11 11 12 11
17 17 18 18 17 17 16 16 16 16 17 17 17 18 18 18 18 18 18 18 17 15 13 11 10 10 10 11 13 15 15 15 13 13 13 15 15 14 14 14 14 16 19 22 22 22 21 21 20 20 18 15 12 10 9 9 10 9 9 9 9 10 10 10 10 10 11 11 11
17 17 17 18 17 16 16 16 16 16 16 16 17 18 18 18 18 18 18 18 16 15 13 12 11 12 13 14 14 14 14 13 13 13 14 16 15 15 15 15 15 17 19 23 22 22 22 21 20 20 18 16 13 11 9 8 8 8 8 8 9 10 10 10 11 11 10 10 10
17 17 17 17 17 16 16 16 16 16 16 15 16 17 18 18 18 17 17 16 16 15 14 15 15 16 15 14 14 14 14 13 13 14 15 16 16 16 16 16 16 17 20 23 23 22 22 21 20 19 18 16 13 10 9 8 8 8 8 9 10 11 11 10 10 11 11 11 10
17 17 17 18 17 17 16 16 16 16 16 16 17 17 17 17 17 16 16 16 16 17 17 17 17 17 16 15 15 15 15 14 14 14 15 16 17 17 17 17 17 18 20 23 23 23 22 21 20 19 18 16 13 11 10 9 9 9 10 10 11 11 10 9 10 11 11 11 10
18 18 18 18 18 17 16 16 16 16 16 16 16 16 16 16 16 15 15 15 16 17 18 18 18 18 17 16 16 16 15 15 15 16 17 17 18 18 18 17 16 17 20 23 23 22 22 21 20 19 18 16 13 11 11 10 9 9 9 10 10 10 10 10 10 10 11 11 10
18 18 18 18 18 18 17 16 16 16 16 15 15 15 16 16 16 16 15 14 15 16 16 17 17 17 17 17 17 16 16 15 15 16 17 18 18 18 17 15 13 16 20 22 22 22 22 21 21 20 18 16 12 11 11 11 10 10 10 10 10 10 10 11 11 11 11 11 10
19 19 18 18 18 18 18 17 16 16 16 15 15 15 15 16 16 16 15 15 15 15 15 15 16 16 16 16 16 17 17 17 17 17 17 17 18 18 18 16 15 18 21 22 22 22 22 21 21 20 18 14 11 10 11 11 11 11 12 12 12 11 11 11 11 11 11 11 11
19 19 19 19 19 19 18 17 17 16 16 16 15 15 15 15 15 15 15 16 16 16 16 16 16 16 16 15 15 16 17 18 18 17 17 17 18 18 19 18 18 20 21 22 22 22 22 21 21 19 17 13 10 10 10 10 11 12 13 13 12 12 12 11 11 11 11 10 10
20 20 20 20 20 19 19 18 18 17 17 16 16 16 16 16 15 15 15 16 17 17 17 16 17 16 16 16 15 15 15 16 17 17 17 17 18 19 19 19 19 19 20 21 22 22 21 21 20 18 15 12 10 10 10 10 10 11 12 13 12 12 11 11 10 10 10 10 10
20 20 20 20 20 20 19 19 18 18 17 17 16 15 15 16 15 14 14 15 16 17 17 16 17 16 16 16 16 15 15 15 17 17 18 17 17 18 19 20 19 18 19 21 21 21 21 20 19 17 14 11 11 10 10 9 10 10 11 11 11 11 10 9 8 9 10 10 11
20 20 21 21 20 20 20 19 19 19 18 18 16 16 15 15 14 14 14 14 16 16 17 17 17 17 17 17 16 16 15 14 16 17 18 17 17 18 19 19 18 18 18 20 21 21 20 20 19 17 15 12 11 10 9 9 10 11 11 10 10 10 10 9 8 8 10 11 13
20 20 21 21 21 20 20 20 19 19 18 18 18 17 16 15 14 14 14 14 15 15 16 17 17 17 17 17 17 17 16 14 14 16 17 17 18 18 19 18 18 18 19 20 20 20 20 20 19 17 15 11 10 9 9 9 10 11 10 10 9 9 9 9 9 9 9 11 12
19 20 21 21 20 20 20 20 19 18 18 18 18 17 16 15 15 14 14 13 14 14 15 15 17 17 17 16 16 17 17 16 15 15 16 18 17 17 17 17 18 18 18 19 20 20 20 19 18 17 14 11 10 9 9 9 10 11 11 10 9 9 9 9 9 8 9 9 9
Wind_Direction
166 165 164 165 165 164 160 156 155 156 157 159 159 160 161 163 161 162 163 165 166 168 169 172 172 173 173 173 175 177 179 181 180 180 179 181 184 185 187 188 179 165 151 141 131 131 140 150 132 119 98 82 100 110 114 116 111 105 100 96 91 86 82 79 78 78 79 79 81
166 165 164 164 163 162 158 155 157 159 160 160 159 159 160 162 160 160 161 163 164 165 166 167 170 171 171 172 174 176 179 179 178 178 179 182 184 184 184 183 169 157 148 140 136 140 152 156 140 127 114 98 106 113 113 106 102 97 93 90 86 84 82 81 82 83 83 83 82
166 165 164 165 165 163 161 158 160 162 162 160 160 159 159 160 158 158 159 160 162 162 163 164 167 168 167 169 171 175 177 177 174 175 177 181 182 180 175 165 153 148 145 143 147 155 161 154 138 129 122 117 113 108 101 92 89 89 87 85 85 85 86 86 85 85 83 81 80
166 165 165 166 166 165 163 160 162 163 162 160 160 159 158 158 156 155 155 157 159 160 161 162 162 162 164 166 168 171 173 173 172 172 174 177 176 170 160 146 141 141 143 147 156 159 155 143 131 125 124 119 109 104 99 96 92 89 86 83 85 88 90 91 89 86 85 84 80
167 166 166 166 167 166 163 161 162 162 162 160 160 159 159 157 154 153 153 156 158 159 159 160 158 158 160 163 165 167 169 171 170 171 172 173 169 160 150 141 138 137 140 146 152 148 138 126 120 118 118 113 103 100 101 103 98 94 89 84 84 87 90 91 89 87 87 86 83
168 167 166 166 166 165 163 162 163 162 162 161 161 160 158 156 154 153 153 155 153 153 154 155 154 155 157 160 163 165 166 168 168 169 168 167 163 155 149 144 143 140 137 136 131 125 120 115 111 109 107 102 99 101 104 105 103 99 95 88 85 85 87 87 86 86 86 88 87
167 166 165 165 165 164 163 162 163 163 163 162 163 162 159 156 154 153 153 151 149 150 151 153 154 154 156 159 162 163 164 165 165 164 163 161 159 156 152 148 145 141 135 130 122 116 112 109 106 104 103 101 100 103 106 106 105 102 98 93 88 86 86 88 88 89 91 94 94
166 166 165 164 164 163 162 163 164 164 164 165 165 163 159 155 153 152 150 148 147 148 151 152 154 155 156 160 161 161 160 160 158 156 154 152 155 153 149 142 138 134 130 126 120 114 109 104 103 102 103 102 101 102 103 105 104 103 100 96 92 89 89 90 92 94 96 98 97
165 164 163 163 163 162 161 163 164 165 165 166 165 161 157 153 152 151 150 147 147 149 150 150 152 154 156 158 157 156 154 153 150 148 146 146 147 142 136 130 128 125 122 118 114 110 107 102 100 98 98 98 100 101 102 104 104 102 101 98 96 93 92 92 93 94 94 94 93
163 162 161 161 160 159 159 163 165 165 166 165 162 158 153 151 152 151 149 145 147 148 149 147 149 152 154 156 153 150 146 143 142 142 142 142 138 132 127 125 124 121 117 114 110 107 105 102 100 97 95 95 98 100 101 102 103 102 101 99 99 98 96 94 94 94 95 94 94
160 160 159 158 157 157 158 162 164 165 165 163 159 154 150 151 152 149 145 143 146 146 146 144 148 150 152 152 148 142 139 137 137 137 136 134 131 128 126 126 124 121 118 115 110 107 105 104 105 103 101 99 98 99 100 101 102 101 101 102 103 102 101 99 98 98 98 98 97
159 158 156 154 154 156 159 162 163 163 162 160 155 151 150 151 150 146 143 143 144 143 143 144 148 150 149 146 140 134 131 130 130 130 130 129 127 126 124 124 122 119 117 115 111 109 108 111 111 110 107 103 101 101 102 103 103 103 104 105 104 103 102 102 102 102 102 101 99
157 155 153 152 153 156 159 161 159 159 159 157 153 150 148 148 146 143 142 142 141 140 141 145 147 147 143 136 129 126 125 125 125 124 123 123 122 120 119 117 116 115 113 112 112 113 114 115 116 114 111 107 105 105 106 107 106 107 107 106 104 104 105 106 107 107 106 104 101
155 153 152 152 155 157 158 157 156 156 155 153 150 146 144 142 142 142 142 140 139 138 139 142 142 138 133 126 122 121 121 121 121 119 118 117 116 115 113 111 111 109 108 107 110 114 116 117 116 114 111 109 108 108 108 108 108 108 108 108 108 108 109 109 109 108 105 103 101
153 152 152 153 156 157 156 154 153 153 153 150 145 142 139 138 141 141 140 138 138 137 137 136 132 126 122 120 119 119 119 118 118 117 115 114 113 112 111 109 108 106 105 104 105 108 111 113 113 112 111 110 111 111 111 109 108 108 108 109 109 109 109 108 106 105 104 103 101
153 153 153 155 157 156 154 152 151 151 150 147 143 140 138 139 141 140 139 138 138 136 134 131 125 120 117 116 117 117 117 117 116 116 115 114 113 112 111 110 108 107 106 105 103 102 103 106 108 109 110 111 112 112 111 110 107 106 105 105 106 105 105 105 104 103 103 103 102
154 154 155 157 157 156 153 151 151 151 149 145 142 141 141 141 141 139 138 138 136 134 130 127 122 117 115 114 115 115 115 116 115 115 115 115 114 113 112 110 109 108 107 106 105 103 101 102 104 107 109 111 111 111 109 107 105 104 103 102 102 102 102 102 103 103 102 101 100
155 156 157 159 158 156 153 152 151 150 148 144 143 142 143 142 140 138 136 135 132 129 126 122 118 116 115 114 114 114 114 115 115 114 114 114 114 113 111 110 108 107 107 107 107 106 106 105 107 108 109 109 109 108 106 104 102 101 101 100 100 100 101 101 102 102 101 99 98
157 158 159 161 159 156 154 153 151 149 147 144 143 143 143 142 140 136 133 130 126 124 121 118 115 114 114 114 113 112 112 113 113 113 112 113 112 112 110 109 107 106 107 107 108 108 108 109 110 110 110 108 107 105 103 101 100 100 99 99 99 100 100 101 100 99 98 97 96
159 160 161 161 158 156 154 153 150 148 146 144 144 143 142 142 138 134 130 126 123 121 119 117 116 115 114 114 112 111 111 111 112 111 111 111 111 111 110 109 107 106 106 106 107 108 109 110 111 110 109 108 106 104 103 102 101 100 100 100 100 100 100 99 98 96 96 96 97
161 162 162 160 157 155 153 151 148 146 145 144 143 142 141 139 135 130 127 124 122 120 118 118 118 117 116 114 113 111 110 109 110 110 110 110 109 110 110 109 108 107 106 107 108 110 111 112 111 110 109 107 106 106 106 105 105 104 104 103 103 102 100 98 97 95 95 96 98
161 161 160 157 155 153 150 148 146 145 144 143 142 140 137 133 129 125 122 120 118 117 116 117 117 116 116 114 113 111 109 107 108 108 108 108 107 107 108 108 108 107 107 108 110 110 110 109 108 107 107 107 107 108 109 109 108 108 107 106 105 103 100 98 97 97 98 99 99
159 158 156 154 152 150 147 145 144 144 143 141 139 135 131 127 124 121 119 117 115 114 113 113 113 113 113 112 112 111 109 107 106 105 105 106 105 105 105 105 106 106 107 109 109 109 108 106 105 105 106 107 108 108 109 108 108 109 109 109 106 104 101 100 100 101 102 102 101
157 155 153 150 149 147 146 144 144 143 141 138 135 131 127 124 122 121 119 117 115 114 113 111 110 110 110 110 110 110 110 109 108 106 106 105 105 105 104 103 102 103 105 108 111 112 111 110 108 108 108 108 107 107 107 107 109 111 112 111 109 107 105 105 106 106 106 106 105
153 150 148 146 147 146 146 145 143 141 138 134 131 128 126 125 124 122 120 117 115 114 112 111 110 109 108 108 109 109 110 111 111 111 109 108 106 106 104 102 101 101 104 110 114 115 116 117 117 115 113 110 109 108 109 111 113 114 114 112 112 112 112 112 112 110 110 109 109
150 147 146 145 146 146 146 144 141 138 134 132 130 128 128 127 124 122 119 116 115 114 113 112 111 110 110 109 109 109 109 111 113 113 113 112 110 108 106 105 105 105 110 117 118 119 119 119 118 117 115 114 113 113 114 114 115 114 114 114 115 117 118 117 116 115 114 113 114
147 147 146 146 146 145 144 141 137 134 133 131 131 130 129 127 124 121 119 116 115 114 113 112 112 111 110 110 110 110 110 111 112 113 114 114 112 111 109 109 110 112 117 122 121 121 119 118 116 115 115 115 116 116 116 116 115 114 114 115 117 118 118 118 117 116 115 114 114
147 147 147 146 144 142 140 137 135 134 133 133 132 130 128 126 124 122 120 118 116 114 112 111 112 111 110 110 111 112 112 113 113 113 113 112 112 112 112 113 115 119 122 124 122 120 118 117 116 116 116 116 115 115 115 116 117 117 117 118 119 119 119 118 118 117 116 114 112
147 147 146 144 142 139 137 136 135 135 134 133 131 130 128 126 125 124 122 120 118 117 115 114 113 111 110 112 113 113 113 114 114 114 113 112 111 111 112 114 117 121 123 123 121 119 118 117 117 117 117 116 116 116 116 117 119 119 120 120 121 122 122 120 120 119 117 115 111
147 146 144 141 138 137 136 136 135 134 132 131 130 130 129 127 126 125 124 123 121 120 119 119 116 115 115 116 116 115 115 116 117 117 116 114 113 113 114 117 119 122 123 123 121 120 119 118 118 117 116 115 114 114 115 117 119 120 120 120 121 121 120 119 118 116 114 110 106
145 144 141 138 136 135 135 134 132 131 131 130 131 131 130 128 127 126 125 124 122 120 119 117 117 117 118 118 118 118 118 119 119 118 117 116 115 115 116 118 119 122 123 123 122 121 120 119 118 116 115 113 112 112 114 116 116 117 117 118 119 119 118 116 114 113 110 107 104
143 141 139 136 134 133 131 130 130 130 130 131 132 131 129 127 126 125 125 124 122 120 119 118 118 118 118 118 119 119 120 120 120 119 119 118 117 117 117 118 120 122 124 125 123 122 121 119 117 114 111 109 108 109 112 113 112 111 110 111 113 114 114 112 110 108 106 104 102
141 140 137 135 132 130 128 128 128 129 130 130 130 129 127 124 123 123 124 123 123 122 121 121 121 121 122 122 122 121 121 120 120 120 120 119 119 119 118 118 120 123 125 125 124 122 120 118 115 113 110 109 108 109 111 110 108 106 105 105 105 105 104 104 104 103 102 101 100
141 139 136 133 130 128 127 128 128 128 128 128 128 127 126 125 124 125 125 124 123 122 121 121 122 123 124 125 124 123 122 121 120 120 121 121 121 120 120 120 122 125 127 125 123 121 119 118 116 114 112 110 109 110 110 108 107 105 103 102 101 99 98 98 98 98 99 100 100
140 138 136 133 131 129 128 128 128 127 127 126 127 126 126 126 125 125 125 124 121 119 118 118 119 120 121 122 122 122 122 122 122 122 122 123 122 120 120 120 122 125 126 125 123 121 120 119 117 115 113 111 109 109 109 108 106 105 104 103 100 98 96 95 96 97 98 100 102
141 138 136 134 132 130 130 130 129 128 127 127 128 127 126 125 124 123 123 122 120 118 118 118 118 118 119 120 121 122 123 124 124 123 123 123 121 120 120 120 123 125 126 125 123 123 122 120 119 117 115 112 111 111 110 108 106 106 105 103 101 100 98 98 98 100 101 103 105
140 138 136 134 133 132 131 132 131 130 130 129 129 128 126 124 122 122 122 121 120 120 120 120 119 120 120 121 121 122 123 124 124 123 122 122 121 121 121 121 124 125 126 126 125 124 124 123 121 119 117 115 115 115 113 111 109 107 106 104 103 102 102 101 102 103 104 105 105
140 138 136 135 134 133 133 133 133 132 132 131 129 128 126 124 122 123 123 123 123 122 121 120 120 120 120 120 119 119 120 120 122 122 122 121 122 122 123 123 125 126 127 127 127 126 126 125 123 122 120 119 119 118 117 115 113 112 110 108 107 106 106 105 104 103 103 104 103
139 138 136 135 134 134 134 135 135 134 133 132 129 127 125 123 123 123 123 123 123 122 121 119 119 119 119 120 118 117 117 116 118 120 121 121 122 124 124 125 126 127 128 129 128 128 127 126 125 124 123 121 121 121 119 118 117 116 115 114 113 111 110 108 107 105 104 104 105
139 138 137 136 135 136 136 136 136 136 134 133 130 128 125 123 122 121 120 119 119 119 119 118 119 119 120 120 118 117 115 113 115 117 119 121 122 123 124 124 125 127 128 130 130 130 129 128 127 126 125 122 122 122 122 121 121 120 120 119 118 116 114 112 110 109 109 110 110
138 138 138 137 137 137 137 137 137 137 135 132 130 128 125 122 120 119 119 118 118 117 117 117 118 119 119 119 118 116 115 113 113 115 117 120 121 122 123 123 125 127 129 131 132 132 131 130 129 128 127 125 125 125 125 125 124 123 124 123 122 120 118 117 117 117 118 120 119